STARLINK-32446, 61262

Orbit data source: Space-Track

STARLINK-32446, 61262 is a payload satellite owned by SpaceX/Seattle (US) in LEO that was launched on Wed, 25 Sep 2024 UTC via an FALCON 9 launch vehicle from the Air Force Western Test Range (AFWTR). Payload-class satellites include a variety of spacecraft equipped with specific instruments for various scientific and technological missions. These include communications satellites like Starlink; space stations such as the ISS; scientific satellites like the Hubble; Earth observation satellites from companies like Planet Labs, Umbra, and HawkEye 360; GPS; miniature CubeSats for education and research; and military/defense satellites.

Loading next visibility...
Identifier
61262, 2024-175V
Orbit
LEO
Country
Flag of USUS
Related business
Manufacturer
SpaceX/Seattle
Mission
Operational Commercial Communications
Bus & Motor
STARLINK V2M, Unknown motor
Mass
730 kg wet, ~700 kg dry
Launch date (UTC)
2024-09-25 (1 year ago)
Launch vehicle
FALCON 9
Launch site
Air Force Western Test Range (AFWTR)
Object type
Payload
Rocket body
Debris
Shape & HBR
Box + 2 Pan, 17.7 m
Radar Cross Section
33.884 m², Large (>1 m²)

Expand to show TLE details & history
Last TLE update: 9 hours ago

TLE from 9 hours ago
0 STARLINK-32446
1 61262U 24175V   25294.58017313 -.00003448  00000-0 -10432-3 0  9990
2 61262  53.1590 120.3077 0001259 105.6155 254.4985 15.30203319 60158
Epoch: 2025-10-21T13:55Z
TLE epoch observation values (Epoch: 2025-10-21T13:55:26.958Z)
Latitude
Longitude
-118.82072°
Altitude
476.335 km
Speed
7.629 km/s
True Right ascension
08h 01m 13s
True Declination
0° 00' 00"
Sunlit
Object was in daylight at epoch
Visualization orbit readout
Latitude
Unknown
Longitude
Unknown
Altitude
Unknown
Speed
Unknown
Apparent Right ascension
Unknown
Apparent Declination
Unknown
Sunlit
N/A
Visualization observer readout
Local Sidereal Time
18:12:01
Azimuth
Unknown
Elevation
Unknown
Doppler factor
Unknown
Orbital elements
Apogee altitude
476.325 km
Perigee altitude
474.599 km
Semi-major axis
6,853.599 km
Eccentricity
0.00013
Inclination
53.159°
RAAN
120.3077°
Arg. of periapsis
105.6155°
True anomaly
254.4846°
Mean anomaly
254.4985°
Eccentric anomaly
254.49155°
Mean motion
3.8253 °/min
Orbital period
94.11 mins
BSTAR
-0.00010432
Loading maneuver chart data...
Computing Atmospheric mass density...
Loading historical data...
Loading historical data...
Loading historical data...
Loading historical data...
Loading historical data...
Loading historical data...
Loading historical data...

Documentation

Showing up to 5 results
|